DateTimeUTC,F1_A11,F1_S11,BsB_S11,BsG_S11,BsR_S11,BbsB_S11,BbsG_S11,BbsR_S11,BaB_A11,BaG_A11,BaR_A11,Tu_S11,T_S11,Uu_S11,U_S11,P_S11,T1_A11
2021-09-25T11:00:00Z,00000200,21000000,,,,,,,-000.20,-000.42,-000.07,16.5,23.6,,00.0,0667.5,30.9
2021-09-25T11:01:00Z,00000200,21000000,,,,,,,0000.38,0000.41,0000.29,16.5,23.6,,00.0,0667.5,30.9
2021-09-25T11:02:00Z,00000200,21000000,,,,,,,0000.41,0000.26,0000.15,16.5,23.6,,00.0,0667.5,30.9
2021-09-25T11:03:00Z,00000200,61000000,,,,,,,-000.02,0000.45,0000.27,16.6,23.6,,00.0,0667.5,30.9
2021-09-25T11:04:00Z,00000200,41000000,0002.28,0001.51,0000.67,0000.92,0000.15,-000.18,0000.66,0000.53,0000.63,17.0,23.6,,00.0,0668.4,30.9
2021-09-25T11:05:00Z,00000200,01000000,0002.45,0001.78,0000.69,0000.39,0000.50,-000.07,0000.41,0000.28,0000.22,17.1,23.5,,00.0,0668.5,30.9
2021-09-25T11:06:00Z,00000200,01000000,0001.43,0001.53,0000.71,0000.35,0000.52,0000.09,0000.23,-000.01,-000.24,17.1,23.5,,00.0,0668.5,30.9
2021-09-25T11:07:00Z,00000200,01000000,0002.60,0001.61,0000.77,0000.32,0000.25,0000.29,0000.40,0000.66,0000.27,17.1,23.5,,00.0,0668.4,30.9
2021-09-25T11:08:00Z,00000200,01000000,0002.03,0001.54,0000.81,0000.51,0000.14,-000.09,0000.46,0000.30,0000.20,17.0,23.5,00.0,00.0,0668.4,30.9
2021-09-25T11:09:00Z,00000200,01000000,0002.75,0001.33,0000.87,0000.78,0000.10,0000.32,0000.10,0000.25,0000.60,17.0,23.5,,00.0,0668.4,30.9
2021-09-25T11:10:00Z,00000200,01000000,0001.19,0001.21,0000.93,-000.45,0000.31,0000.09,0000.60,0000.16,0000.04,16.9,23.4,00.0,00.0,0668.4,30.8
2021-09-25T11:11:00Z,00000200,01000000,0002.37,0001.52,0000.48,0000.21,0000.35,0000.08,0000.61,0000.69,0000.44,16.9,23.4,,00.0,0668.4,30.8
2021-09-25T11:12:00Z,00000200,01000000,0001.39,0001.21,0000.63,0000.26,0000.18,0000.14,0000.51,0000.39,0000.19,16.9,23.4,,00.0,0668.5,30.8
2021-09-25T11:13:00Z,00000200,01000000,0001.84,0001.44,0000.96,0000.77,0000.13,0000.35,0000.77,0000.67,0000.47,16.9,23.4,,00.0,0668.5,30.8
2021-09-25T11:14:00Z,00000200,01000000,0001.93,0001.73,0000.81,0000.60,0000.15,0000.37,0000.44,0000.46,0000.50,16.9,23.4,00.0,00.0,0668.5,30.9
2021-09-25T11:15:00Z,00000200,01000000,0001.89,0001.32,0000.68,0000.06,0000.21,0000.01,0000.41,0000.49,0000.56,16.9,23.4,,00.0,0668.5,30.9
2021-09-25T11:16:00Z,00000200,01000000,0002.47,0001.58,0000.93,0000.45,0000.04,0000.20,0000.46,0000.67,0000.13,17.0,23.5,,00.0,0668.6,30.9
2021-09-25T11:17:00Z,00000200,01000000,0001.56,0001.29,0000.72,0001.15,0000.19,0000.39,0000.48,0000.29,0000.53,17.1,23.5,00.0,00.0,0668.6,30.9
2021-09-25T11:18:00Z,00000200,01000000,0002.41,0001.64,0000.72,0000.19,0000.40,0000.02,0000.56,0000.48,0000.09,17.1,23.5,00.0,00.0,0668.7,30.9
2021-09-25T11:19:00Z,00000200,01000000,0002.23,0001.58,0000.93,0000.06,0000.28,0000.37,0000.75,0000.70,0000.47,17.1,23.6,00.0,00.0,0668.7,30.9
2021-09-25T11:20:00Z,00000200,01000000,0001.59,0001.90,0001.05,0000.50,0000.42,0000.36,0000.25,0000.27,-000.05,17.1,23.6,,00.0,0668.7,30.9
2021-09-25T11:21:00Z,00000200,01000000,0002.53,0001.57,0000.75,-000.03,0000.21,0000.14,0000.30,0000.01,0000.52,17.1,23.6,00.0,00.0,0668.7,30.9
2021-09-25T11:22:00Z,00000200,01000000,0002.08,0001.41,0001.16,0000.38,0000.22,0000.34,0000.68,0000.33,0000.26,17.0,23.5,,00.0,0668.7,30.9
2021-09-25T11:23:00Z,00000200,01000000,0002.57,0001.84,0000.91,0001.07,0000.22,0000.11,0000.43,0000.65,0000.48,17.0,23.5,00.0,00.0,0668.6,30.8
2021-09-25T11:24:00Z,00000200,01000000,0002.64,0001.97,0000.84,0000.32,0000.26,-000.01,0000.80,0000.81,0000.19,16.9,23.5,00.0,00.0,0668.6,30.8
2021-09-25T11:25:00Z,00000200,01000000,0002.47,0002.29,0000.99,0000.99,0000.19,0000.36,0000.42,0000.02,0000.21,16.9,23.5,00.0,00.0,0668.6,30.8
2021-09-25T11:26:00Z,00000200,01000000,0003.08,0001.87,0000.80,0000.14,0000.25,0000.16,0001.00,0001.16,0000.64,16.9,23.4,00.0,00.0,0668.5,30.8
2021-09-25T11:27:00Z,00000200,01000000,0003.04,0001.82,0000.89,0001.20,0000.24,0000.12,0000.53,0000.55,0000.67,16.8,23.4,00.0,00.0,0668.6,30.8
2021-09-25T11:28:00Z,00000200,01000000,0002.69,0001.78,0001.29,0000.77,0000.30,0000.08,0000.56,0000.69,0000.51,16.8,23.4,00.0,00.0,0668.6,30.8
2021-09-25T11:29:00Z,00000200,01000000,0002.25,0001.87,0001.22,0000.36,0000.45,0000.28,0000.70,0000.29,0000.10,16.9,23.4,00.0,00.0,0668.6,30.8
2021-09-25T11:30:00Z,00000200,01000000,0002.49,0002.00,0001.03,0000.27,0000.32,0000.23,0000.29,0000.64,0000.56,17.0,23.4,00.0,00.0,0668.5,30.9
2021-09-25T11:31:00Z,00000200,01000000,0002.83,0001.92,0000.83,0000.50,0000.42,0000.22,0000.61,0000.01,0000.35,17.0,23.5,00.1,00.0,0668.5,30.9
2021-09-25T11:32:00Z,00000200,01000000,0003.07,0002.11,0001.03,0000.52,0000.68,0000.49,0000.48,0000.97,0000.31,17.1,23.5,00.0,00.0,0668.5,30.9
2021-09-25T11:33:00Z,00000200,01000000,0002.76,0002.15,0001.15,0000.48,0000.23,0000.39,0001.09,0000.77,0000.64,17.2,23.5,00.0,00.0,0668.5,30.9
2021-09-25T11:34:00Z,00000200,01000000,0003.59,0001.85,0001.00,0000.24,0000.08,0000.06,-000.25,-000.36,-000.14,17.2,23.5,00.0,00.0,0668.4,30.9
2021-09-25T11:35:00Z,00000200,01000000,0002.48,0001.96,0001.01,0000.62,0000.48,-000.17,0000.66,0000.52,0000.16,17.1,23.5,00.0,00.0,0668.5,30.9
2021-09-25T11:36:00Z,00000200,01000000,0003.51,0002.01,0001.21,0000.27,0000.32,0000.41,0000.52,0000.70,0000.44,17.1,23.5,00.0,00.0,0668.5,30.9
2021-09-25T11:37:00Z,00000200,01000000,0002.20,0001.86,0000.98,0000.49,0000.07,0000.36,0000.27,-000.22,0000.17,17.0,23.5,00.0,00.0,0668.4,30.9
2021-09-25T11:38:00Z,00000200,01000000,0003.20,0002.10,0001.27,0000.62,0000.36,0000.56,0000.55,0001.04,0000.21,17.0,23.5,00.0,00.0,0668.4,30.9
2021-09-25T11:39:00Z,00000200,01000000,0003.24,0002.10,0001.21,0000.18,0000.63,0000.30,0000.08,-000.28,0000.24,16.9,23.5,00.0,00.0,0668.4,30.9
2021-09-25T11:40:00Z,00000200,01000000,0002.59,0002.08,0000.77,0000.51,0000.33,-000.12,0001.03,0000.74,0000.33,16.9,23.5,00.0,00.0,0668.4,30.9
2021-09-25T11:41:00Z,00000200,01000000,0002.77,0002.02,0001.27,0000.55,0000.30,0000.22,0000.68,0001.20,0001.49,16.9,23.4,00.0,00.0,0668.5,30.8
2021-09-25T11:42:00Z,00000200,01000000,0002.92,0002.03,0000.95,0000.56,0000.52,0000.28,0000.82,0000.84,-000.03,16.8,23.4,00.0,00.0,0668.6,30.9
2021-09-25T11:43:00Z,00000200,01000000,0002.42,0002.21,0001.05,0001.25,0000.33,0000.06,0001.02,0001.03,0001.01,16.9,23.4,00.0,00.0,0668.6,30.9
2021-09-25T11:44:00Z,00000200,01000000,0002.82,0002.16,0001.45,0000.79,0000.26,0000.31,0000.83,0000.39,0000.35,16.9,23.4,00.0,00.0,0668.6,30.9
2021-09-25T11:45:00Z,00000200,01000000,0003.20,0002.16,0001.34,0000.59,0000.52,0000.19,0000.59,0000.76,0000.39,17.0,23.4,00.0,00.0,0668.6,30.9
2021-09-25T11:46:00Z,00000200,01000000,0003.32,0002.25,0001.26,0001.02,0000.17,0000.31,0000.95,0000.88,0000.76,17.1,23.5,00.0,00.0,0668.6,30.9
2021-09-25T11:47:00Z,00000200,01000000,0002.82,0002.04,0001.08,0000.72,0000.15,0000.58,0000.68,0000.63,0000.32,17.1,23.5,00.1,00.0,0668.5,30.9
2021-09-25T11:48:00Z,00000200,01000000,0003.60,0002.04,0000.88,0000.09,0000.04,0000.09,0000.89,0000.53,0000.56,17.2,23.5,00.1,00.0,0668.6,30.9
2021-09-25T11:49:00Z,00000200,01000000,0002.43,0002.20,0001.29,0000.66,0000.45,0000.18,0000.47,0000.51,0000.31,17.3,23.6,00.1,00.1,0668.6,30.9
2021-09-25T11:50:00Z,00000200,01000000,0002.47,0002.64,0001.33,0000.22,0000.28,0000.02,0000.80,0000.32,0000.27,17.3,23.6,00.0,00.0,0668.6,30.9
2021-09-25T11:51:00Z,00000200,01000000,0003.27,0002.28,0001.10,0000.68,0000.42,0000.66,-000.05,0000.36,0000.14,17.2,23.6,00.1,00.0,0668.7,30.9
2021-09-25T11:52:00Z,00000200,01000000,0003.36,0002.18,0001.14,0000.48,0000.41,0000.26,0001.04,0000.59,0000.64,17.2,23.6,00.1,00.0,0668.6,30.9
2021-09-25T11:53:00Z,00000200,01000000,0002.85,0002.57,0001.27,-000.12,0000.31,0000.50,0000.73,0001.10,0000.50,17.1,23.5,00.1,00.0,0668.7,30.9
2021-09-25T11:54:00Z,00000200,01000000,0002.68,0002.63,0001.30,0000.59,-000.07,0000.31,0001.48,0000.83,0000.72,17.1,23.5,00.2,00.1,0668.6,30.9
2021-09-25T11:55:00Z,00000200,01000000,0003.81,0002.35,0001.30,0000.40,0000.37,0000.33,0000.22,0000.64,0000.52,17.0,23.5,00.2,00.1,0668.6,30.9
2021-09-25T11:56:00Z,00000200,01000000,0002.18,0002.28,0001.19,0000.69,0000.38,0000.36,0001.58,0001.34,0001.03,17.0,23.5,00.2,00.1,0668.6,30.9
2021-09-25T11:57:00Z,00000200,41000000,,,,,,,-000.35,-000.22,-000.31,17.0,23.5,00.6,00.4,0668.6,30.9
2021-09-25T11:58:00Z,00000200,61000000,,,,,,,0000.44,0000.54,0000.27,16.8,23.6,00.0,00.0,0667.7,30.9
2021-09-25T11:59:00Z,00000200,21000000,,,,,,,0000.30,-000.05,0000.19,16.8,23.7,,00.0,0667.7,30.9
